Retour au catalogue

ORBCOMM FM 104

ActifCommunicationsLEO
NORAD 40090·PAYLOAD·🇺🇸 United States

Lancé Jul 14, 2014 depuis Cape Canaveral Space Force Station

Loading…

Prochains Passages (prochaines 24 heures)

TLE

FraisSource: Space-Track

Époque: Sep 14, 2026, 11:48 UTC

1 40090U 14040E   26257.49216228  .00000264  00000-0  95110-4 0  9990
2 40090  47.0047  69.1709 0015803 123.5683 236.6713 14.57359478646876

Suivez ORBCOMM FM 104 en temps réel avec AllMySat

Download on the App Store